Hourly Weather Russkaya Urginka

Today, 18 April, Sunday

Time Temperature Precipitation Wind Pressure Humidity
00:00 +12°C° 0 mm 2 mps 745 mmHg 67%
01:00 +11°C° 0 mm 1 mps 745 mmHg 68%
02:00 +10°C° 0 mm 2 mps 745 mmHg 70%
03:00 +9°C° 0 mm 2 mps 745 mmHg 71%
04:00 +9°C° 0 mm 2 mps 745 mmHg 73%
05:00 +9°C° 0 mm 2 mps 745 mmHg 73%
06:00 +10°C° 0 mm 2 mps 745 mmHg 72%
07:00 +11°C° 0 mm 1 mps 744 mmHg 72%
08:00 +13°C° 0 mm 2 mps 744 mmHg 66%
09:00 +15°C° 0 mm 2 mps 744 mmHg 60%
10:00 +16°C° 0 mm 2 mps 744 mmHg 54%
11:00 +17°C° 0 mm 3 mps 744 mmHg 49%
12:00 +18°C° 0 mm 3 mps 744 mmHg 44%
13:00 +19°C° 0 mm 4 mps 744 mmHg 40%
14:00 +19°C° 0 mm 4 mps 744 mmHg 39%
15:00 +19°C° 0 mm 4 mps 744 mmHg 39%
16:00 +17°C° 0 mm 5 mps 744 mmHg 39%
17:00 +17°C° 0 mm 4 mps 744 mmHg 43%
18:00 +14°C° 0 mm 3 mps 744 mmHg 48%
19:00 +13°C° 0 mm 3 mps 744 mmHg 52%
20:00 +12°C° 0 mm 4 mps 744 mmHg 55%
21:00 +10°C° 0 mm 5 mps 745 mmHg 58%
22:00 +9°C° 0 mm 7 mps 745 mmHg 61%
23:00 +8°C° 0 mm 7 mps 746 mmHg 62%

Tomorrow, 19 April, Monday

Time Temperature Precipitation Wind Pressure Humidity
00:00 +5°C° 0 mm 8 mps 746 mmHg 64%
01:00 +3°C° 0 mm 9 mps 747 mmHg 65%
02:00 +2°C° 0 mm 9 mps 747 mmHg 65%
03:00 +1°C° 0 mm 9 mps 748 mmHg 65%
04:00 0°C° 0 mm 9 mps 748 mmHg 65%
05:00 0°C° 0 mm 9 mps 749 mmHg 64%
06:00 -1°C° 0 mm 9 mps 749 mmHg 63%
07:00 -1°C° 0 mm 9 mps 749 mmHg 62%
08:00 -1°C° 0 mm 9 mps 750 mmHg 59%
09:00 -1°C° 0 mm 8 mps 750 mmHg 55%
10:00 -1°C° 0 mm 8 mps 751 mmHg 51%
11:00 0°C° 0 mm 8 mps 751 mmHg 49%
12:00 +1°C° 0 mm 8 mps 751 mmHg 46%
13:00 +3°C° 0 mm 7 mps 751 mmHg 44%
14:00 +4°C° 0 mm 7 mps 751 mmHg 42%
15:00 +4°C° 0 mm 7 mps 751 mmHg 40%
16:00 +5°C° 0 mm 7 mps 751 mmHg 38%
17:00 +4°C° 0 mm 7 mps 751 mmHg 38%
18:00 +3°C° 0 mm 7 mps 752 mmHg 39%
19:00 +2°C° 0 mm 6 mps 752 mmHg 40%
20:00 +1°C° 0 mm 6 mps 753 mmHg 41%
21:00 -1°C° 0 mm 6 mps 753 mmHg 41%
22:00 -2°C° 0 mm 7 mps 754 mmHg 42%
23:00 -2°C° 0 mm 7 mps 754 mmHg 43%

Day after tomorrow, 20 April, Tuesday

Time Temperature Precipitation Wind Pressure Humidity
00:00 -3°C° 0 mm 7 mps 754 mmHg 44%
01:00 -3°C° 0 mm 6 mps 754 mmHg 45%
02:00 -4°C° 0 mm 6 mps 755 mmHg 45%
03:00 -4°C° 0 mm 6 mps 755 mmHg 45%
04:00 -4°C° 0 mm 6 mps 755 mmHg 44%
05:00 -4°C° 0 mm 6 mps 756 mmHg 42%
06:00 -4°C° 0 mm 7 mps 756 mmHg 40%
07:00 -3°C° 0 mm 7 mps 756 mmHg 37%
08:00 -2°C° 0 mm 7 mps 756 mmHg 34%
09:00 -1°C° 0 mm 7 mps 756 mmHg 31%
10:00 +2°C° 0 mm 7 mps 757 mmHg 28%
11:00 +2°C° 0 mm 7 mps 756 mmHg 27%
12:00 +3°C° 0 mm 7 mps 756 mmHg 27%
13:00 +4°C° 0 mm 6 mps 756 mmHg 27%
14:00 +5°C° 0 mm 6 mps 756 mmHg 27%
15:00 +5°C° 0 mm 6 mps 756 mmHg 27%
16:00 +5°C° 0 mm 6 mps 756 mmHg 27%
17:00 +5°C° 0 mm 5 mps 756 mmHg 33%
18:00 +4°C° 0 mm 3 mps 756 mmHg 38%
19:00 +3°C° 0 mm 2 mps 756 mmHg 43%
20:00 +3°C° 0 mm 2 mps 757 mmHg 46%
21:00 +2°C° 0 mm 2 mps 757 mmHg 48%
22:00 +2°C° 0 mm 1 mps 757 mmHg 50%
23:00 -1°C° 0 mm 2 mps 757 mmHg 51%

21 April, Wednesday

Time Temperature Precipitation Wind Pressure Humidity
00:00 -1°C° 0 mm 2 mps 757 mmHg 51%
01:00 -1°C° 0 mm 3 mps 756 mmHg 51%
02:00 -1°C° 0 mm 2 mps 757 mmHg 52%
03:00 -1°C° 0 mm 2 mps 757 mmHg 52%
04:00 +1°C° 0 mm 1 mps 757 mmHg 52%
05:00 +1°C° 0 mm 1 mps 758 mmHg 49%
06:00 +1°C° 0 mm 2 mps 758 mmHg 45%
07:00 +2°C° 0 mm 2 mps 758 mmHg 41%
08:00 +3°C° 0 mm 3 mps 758 mmHg 37%
09:00 +4°C° 0 mm 4 mps 757 mmHg 33%
10:00 +6°C° 0 mm 4 mps 757 mmHg 29%
11:00 +7°C° 0 mm 4 mps 757 mmHg 28%
12:00 +8°C° 0 mm 4 mps 757 mmHg 28%
13:00 +10°C° 0 mm 4 mps 757 mmHg 28%
14:00 +11°C° 0 mm 4 mps 757 mmHg 28%
15:00 +10°C° 0 mm 5 mps 756 mmHg 29%
16:00 +10°C° 0 mm 5 mps 756 mmHg 30%
17:00 +10°C° 0 mm 4 mps 757 mmHg 36%
18:00 +9°C° 0 mm 3 mps 757 mmHg 42%
19:00 +7°C° 0 mm 3 mps 757 mmHg 48%
20:00 +6°C° 0 mm 2 mps 757 mmHg 49%
21:00 +5°C° 0 mm 2 mps 757 mmHg 51%
22:00 +4°C° 0 mm 2 mps 757 mmHg 52%
23:00 +4°C° 0 mm 2 mps 758 mmHg 53%

22 April, Thursday

Time Temperature Precipitation Wind Pressure Humidity
00:00 +3°C° 0 mm 2 mps 758 mmHg 55%
01:00 +4°C° 0 mm 1 mps 758 mmHg 56%
02:00 +4°C° 0 mm 1 mps 758 mmHg 56%
03:00 +3°C° 0 mm 1 mps 758 mmHg 57%
04:00 +3°C° 0 mm 1 mps 759 mmHg 57%
05:00 +4°C° 0 mm 1 mps 759 mmHg 55%
06:00 +5°C° 0 mm 1 mps 759 mmHg 54%
07:00 +6°C° 0 mm 1 mps 759 mmHg 52%
08:00 +6°C° 0 mm 2 mps 759 mmHg 48%
09:00 +8°C° 0 mm 3 mps 759 mmHg 44%
10:00 +8°C° 0 mm 4 mps 759 mmHg 39%
11:00 +9°C° 0 mm 5 mps 759 mmHg 38%
12:00 +10°C° 0 mm 5 mps 759 mmHg 37%
13:00 +12°C° 0 mm 5 mps 759 mmHg 36%
14:00 +12°C° 0 mm 5 mps 758 mmHg 36%
15:00 +13°C° 0 mm 5 mps 758 mmHg 36%
16:00 +13°C° 0 mm 5 mps 758 mmHg 35%
17:00 +12°C° 0 mm 4 mps 758 mmHg 42%
18:00 +11°C° 0 mm 3 mps 758 mmHg 48%
19:00 +10°C° 0 mm 2 mps 758 mmHg 54%
20:00 +9°C° 0 mm 2 mps 758 mmHg 56%
21:00 +8°C° 0 mm 2 mps 758 mmHg 58%
22:00 +7°C° 0 mm 2 mps 758 mmHg 60%
23:00 +7°C° 0 mm 2 mps 757 mmHg 60%

23 April, Friday

Time Temperature Precipitation Wind Pressure Humidity
00:00 +7°C° 0 mm 2 mps 757 mmHg 61%
01:00 +6°C° 0 mm 2 mps 757 mmHg 61%
02:00 +6°C° 0 mm 2 mps 757 mmHg 61%
03:00 +6°C° 0 mm 2 mps 757 mmHg 61%
04:00 +6°C° 0 mm 2 mps 757 mmHg 61%
05:00 +7°C° 0 mm 2 mps 757 mmHg 60%
06:00 +8°C° 0 mm 1 mps 757 mmHg 60%
07:00 +9°C° 0 mm 1 mps 757 mmHg 60%
08:00 +9°C° 0 mm 2 mps 757 mmHg 55%
09:00 +11°C° 0 mm 3 mps 757 mmHg 51%
10:00 +12°C° 0 mm 4 mps 757 mmHg 46%
11:00 +13°C° 0 mm 4 mps 756 mmHg 45%
12:00 +13°C° 0 mm 5 mps 756 mmHg 44%
13:00 +14°C° 0 mm 5 mps 756 mmHg 42%
14:00 +14°C° 0 mm 5 mps 756 mmHg 42%
15:00 +14°C° 0 mm 5 mps 755 mmHg 42%
16:00 +15°C° 0 mm 5 mps 755 mmHg 42%
17:00 +14°C° 0 mm 4 mps 755 mmHg 47%
18:00 +13°C° 0 mm 3 mps 755 mmHg 53%
19:00 +12°C° 0 mm 3 mps 755 mmHg 58%
20:00 +12°C° 0 mm 2 mps 755 mmHg 60%
21:00 +10°C° 0 mm 2 mps 754 mmHg 63%
22:00 +9°C° 0 mm 2 mps 754 mmHg 65%
23:00 +9°C° 0 mm 2 mps 754 mmHg 63%
Show more